Back to catalog

ATLAS 5 CENTAUR DEB

LostHEO
NORAD 44898·DEBRIS·🇺🇸 United States

Launched Oct 17, 2018 from Cape Canaveral Space Force Station

Loading…

Next Passes (next 24 hours)

TLE

StaleSource: Space-Track

Epoch: Jan 14, 2020, 20:51 UTC

1 44898U 18079BM  20014.86899287 -.00000041  00000-0  00000+0 0  9997
2 44898  11.4607 252.4739 4617034 280.5349  32.2818  2.03209585  1416

Track ATLAS 5 CENTAUR DEB in real time with AllMySat

Download on the App Store